This is the latest recevied weather packets stored in our database for station/object N7WGJ. If no packets are shown the sender has not sent any weather packets the latest 10 day(s).
| Time | Temp. | Humidity | Pressure | Rain* | Wind** | Luminosity | Snow |
|---|---|---|---|---|---|---|---|
| 1777801297 | 15.56° C | 65% | 1014.7 hPa | 0 mm | - | - | - |
| 1777800698 | 16.11° C | 64% | 1014.7 hPa | 0 mm | - | - | - |
| 1777800101 | 16.67° C | 63% | 1014.6 hPa | 0 mm | - | - | - |
| 1777799498 | 16.67° C | 62% | 1014.6 hPa | 0 mm | - | - | - |
| 1777798898 | 16.67° C | 62% | 1014.6 hPa | 0 mm | - | - | - |
| 1777798291 | 16.67° C | 62% | 1014.7 hPa | 0 mm | - | - | - |
| 1777797692 | 16.67° C | 62% | 1014.7 hPa | 0 mm | - | - | - |
| 1777797087 | 16.11° C | 62% | 1014.8 hPa | 0 mm | - | - | - |
| 1777796488 | 16.67° C | 62% | 1014.8 hPa | 0 mm | - | - | - |
| 1777795891 | 16.67° C | 60% | 1014.8 hPa | 0 mm | - | - | - |
| 1777795293 | 17.22° C | 59% | 1014.8 hPa | 0 mm | - | - | - |
| 1777794700 | 17.22° C | 59% | 1014.8 hPa | 0 mm | - | - | - |
| 1777794102 | 17.22° C | 59% | 1014.7 hPa | 0 mm | - | - | - |
| 1777793484 | 17.22° C | 59% | 1014.7 hPa | 0 mm | - | - | - |
| 1777792896 | 17.22° C | 59% | 1014.7 hPa | 0 mm | - | - | - |
| 1777792296 | 17.22° C | 59% | 1014.7 hPa | 0 mm | - | - | - |
| 1777791717 | 17.22° C | 59% | 1014.8 hPa | 0 mm | - | - | - |
| 1777791087 | 17.22° C | 60% | 1014.7 hPa | 0 mm | - | - | - |
| 1777790487 | 17.22° C | 61% | 1014.6 hPa | 0 mm | - | - | - |
| 1777789893 | 17.22° C | 61% | 1014.7 hPa | 0 mm | - | - | - |
| 1777789294 | 17.22° C | 62% | 1014.5 hPa | 0 mm | - | - | - |
| 1777788694 | 16.67° C | 64% | 1014.5 hPa | 0 mm | - | - | - |
| 1777788114 | 16.67° C | 66% | 1014.5 hPa | 0 mm | - | - | - |
| 1777787483 | 16.11° C | 68% | 1014.5 hPa | 0 mm | - | - | - |
| 1777786901 | 16.11° C | 69% | 1014.5 hPa | 0 mm | - | - | - |
* Rain latest hour (hover to see other rain measurements)
** Current wind speed in m/s (hover to see current wind gust speed)